Location: Unspecified
(0.0000°N, 0.0000°E)
Time: 23:42:04
(UTC+00:00)

ISS - Pass Details

Date: 10 December 2020
Orbit: 418 x 419 km, 51.6° (Epoch: 17 January)

Event Time Altitude Azimuth Distance (km) Brightness Sun altitude
Rises 19:00:23 0° 342° (NNW) 2,343 0.0 -15.4°
Reaches altitude 10° 19:02:40 10° 356° (N) 1,484 -1.2 -16.0°
Enters shadow 19:03:03 12° 359° (N) 1,358 -1.4 -16.0°
